sat.trackr.live / text

‹ back to catalog

STARLINK-35948

NORAD 66633 · 2025-271S

PAYLOAD ACTIVE UNKNOWN

§ Identity

Operator
Country
US
Launch date
2025-11-23
Launch site
AFWTR
Launch vehicle
Mass (kg)
RCS (m²)

Purposes: comms

External: N2YO · Heavens-Above · Gunter

§ Orbital elements

Epoch: 2026-05-25T03:26:55.058784Z

Period
93.85 min
Inclination
53.1585°
Eccentricity
0.0000939
Mean motion
15.34419411 rev/d
Perigee alt
462.0 km
Apogee alt
463.3 km
Semi-major
6,840.8 km
B*
7.7256e-4
RAAN
143.2886°
Arg perigee
82.3949°
Mean anomaly
277.7160°
Rev number
2,929

§ Raw data

STARLINK-359481 66633U 25271S   26145.14369281  .00025832  00000+0  77256-3 0  99922 66633  53.1585 143.2886 0000939  82.3949 277.7160 15.34419411 29296

JSON: /api/v1/satellites/66633 · /tle

For live sub-satellite position, see the globe view (requires WebGL).

§ Visibility from observer

Set your observer location to see the next 7 days of passes ≥ 10°. The values pass through the URL so the page stays shareable.

No JS? Fill the form by hand. The geolocation button needs JavaScript.